TimeCDT,TemperatureF,Dew PointF,Humidity,Sea Level PressureIn,VisibilityMPH,Wind Direction,Wind SpeedMPH,Gust SpeedMPH,PrecipitationIn,Events,Conditions,WindDirDegrees,DateUTC
12:15 AM,46.4,30.2,53,29.99,10.0,Calm,Calm,-,N/A,,Clear,0,2014-03-22 05:15:00
12:35 AM,42.8,30.2,61,29.99,10.0,Calm,Calm,-,N/A,,Clear,0,2014-03-22 05:35:00
12:55 AM,39.2,30.2,70,29.99,10.0,Calm,Calm,-,N/A,,Clear,0,2014-03-22 05:55:00
1:15 AM,39.2,30.2,70,29.98,10.0,Calm,Calm,-,N/A,,Clear,0,2014-03-22 06:15:00
1:35 AM,37.4,30.2,75,29.98,10.0,Calm,Calm,-,N/A,,Clear,0,2014-03-22 06:35:00
1:55 AM,37.4,30.2,75,29.97,10.0,Calm,Calm,-,N/A,,Clear,0,2014-03-22 06:55:00
2:15 AM,37.4,30.2,75,29.97,10.0,Calm,Calm,-,N/A,,Clear,0,2014-03-22 07:15:00
2:35 AM,37.4,30.2,75,29.97,10.0,Calm,Calm,-,N/A,,Clear,0,2014-03-22 07:35:00
2:55 AM,37.4,33.8,87,29.97,10.0,Calm,Calm,-,N/A,,Clear,0,2014-03-22 07:55:00
3:15 AM,37.4,32.0,81,29.96,10.0,Calm,Calm,-,N/A,,Clear,0,2014-03-22 08:15:00
3:35 AM,37.4,32.0,81,29.96,10.0,Calm,Calm,-,N/A,,Clear,0,2014-03-22 08:35:00
3:55 AM,35.6,32.0,87,29.96,10.0,Calm,Calm,-,N/A,,Clear,0,2014-03-22 08:55:00
4:15 AM,37.4,33.8,87,29.96,10.0,Calm,Calm,-,N/A,,Clear,0,2014-03-22 09:15:00
4:35 AM,37.4,32.0,81,29.96,10.0,Calm,Calm,-,N/A,,Clear,0,2014-03-22 09:35:00
4:55 AM,39.2,33.8,81,29.96,10.0,Calm,Calm,-,N/A,,Unknown,0,2014-03-22 09:55:00
5:15 AM,41.0,33.8,76,29.97,10.0,Calm,Calm,-,N/A,,Partly Cloudy,0,2014-03-22 10:15:00
5:35 AM,42.8,33.8,70,29.97,10.0,Calm,Calm,-,N/A,,Unknown,0,2014-03-22 10:35:00
5:55 AM,39.2,35.6,87,29.97,10.0,Calm,Calm,-,N/A,,Unknown,0,2014-03-22 10:55:00
6:15 AM,39.2,35.6,87,29.97,10.0,Calm,Calm,-,N/A,,Unknown,0,2014-03-22 11:15:00
6:35 AM,39.2,35.6,87,30.00,10.0,North,5.8,-,N/A,,Clear,350,2014-03-22 11:35:00
6:55 AM,42.8,33.8,70,30.02,10.0,Calm,Calm,-,N/A,,Clear,0,2014-03-22 11:55:00
7:15 AM,41.0,32.0,70,30.01,10.0,Calm,Calm,-,N/A,,Clear,0,2014-03-22 12:15:00
7:35 AM,42.8,35.6,76,30.01,10.0,Calm,Calm,-,N/A,,Clear,0,2014-03-22 12:35:00
7:55 AM,46.4,35.6,66,30.02,10.0,Calm,Calm,-,N/A,,Clear,0,2014-03-22 12:55:00
8:15 AM,51.8,35.6,54,30.03,10.0,Calm,Calm,-,N/A,,Clear,0,2014-03-22 13:15:00
8:35 AM,51.8,35.6,54,30.04,10.0,Calm,Calm,-,N/A,,Clear,0,2014-03-22 13:35:00
8:55 AM,51.8,37.4,58,30.05,10.0,Calm,Calm,-,N/A,,Clear,0,2014-03-22 13:55:00
9:15 AM,53.6,37.4,54,30.05,10.0,Calm,Calm,-,N/A,,Clear,0,2014-03-22 14:15:00
9:35 AM,55.4,35.6,47,30.05,10.0,Calm,Calm,-,N/A,,Clear,0,2014-03-22 14:35:00
9:55 AM,55.4,33.8,44,30.06,10.0,Calm,Calm,-,N/A,,Clear,0,2014-03-22 14:55:00
10:15 AM,55.4,33.8,44,30.06,10.0,Calm,Calm,-,N/A,,Clear,0,2014-03-22 15:15:00
10:35 AM,57.2,35.6,44,30.05,10.0,Calm,Calm,-,N/A,,Clear,0,2014-03-22 15:35:00
10:55 AM,57.2,35.6,44,30.05,10.0,Calm,Calm,-,N/A,,Clear,0,2014-03-22 15:55:00
11:15 AM,59.0,35.6,42,30.05,10.0,Variable,3.5,-,N/A,,Clear,0,2014-03-22 16:15:00
11:35 AM,59.0,35.6,42,30.05,10.0,North,3.5,-,N/A,,Partly Cloudy,10,2014-03-22 16:35:00
11:55 AM,60.8,37.4,42,30.05,10.0,North,5.8,-,N/A,,Clear,10,2014-03-22 16:55:00
12:15 PM,60.8,37.4,42,30.06,10.0,Variable,3.5,-,N/A,,Clear,0,2014-03-22 17:15:00
12:35 PM,62.6,37.4,39,30.06,10.0,North,6.9,-,N/A,,Clear,360,2014-03-22 17:35:00
12:55 PM,62.6,35.6,37,30.05,10.0,Calm,Calm,-,N/A,,Clear,0,2014-03-22 17:55:00
1:15 PM,62.6,35.6,37,30.05,10.0,ENE,4.6,-,N/A,,Clear,60,2014-03-22 18:15:00
1:35 PM,64.4,35.6,34,30.04,10.0,NE,3.5,-,N/A,,Clear,50,2014-03-22 18:35:00
1:55 PM,64.4,37.4,37,30.04,10.0,North,6.9,-,N/A,,Partly Cloudy,360,2014-03-22 18:55:00
2:15 PM,64.4,35.6,34,30.03,10.0,Variable,3.5,-,N/A,,Partly Cloudy,0,2014-03-22 19:15:00
2:35 PM,64.4,35.6,34,30.02,10.0,Variable,5.8,-,N/A,,Partly Cloudy,0,2014-03-22 19:35:00
2:55 PM,66.2,35.6,32,30.03,10.0,NW,4.6,-,N/A,,Partly Cloudy,320,2014-03-22 19:55:00
3:15 PM,64.4,35.6,34,30.02,10.0,NNW,8.1,-,N/A,,Partly Cloudy,330,2014-03-22 20:15:00
3:35 PM,64.4,35.6,34,30.02,10.0,Calm,Calm,-,N/A,,Partly Cloudy,0,2014-03-22 20:35:00
3:55 PM,64.4,35.6,34,30.02,10.0,NW,5.8,-,N/A,,Clear,310,2014-03-22 20:55:00
4:15 PM,66.2,35.6,32,30.01,10.0,Calm,Calm,-,N/A,,Clear,0,2014-03-22 21:15:00
4:35 PM,64.4,35.6,34,30.01,10.0,Calm,Calm,-,N/A,,Scattered Clouds,0,2014-03-22 21:35:00
4:55 PM,64.4,35.6,34,30.02,10.0,Variable,4.6,-,N/A,,Partly Cloudy,0,2014-03-22 21:55:00
5:15 PM,64.4,35.6,34,30.02,10.0,NW,8.1,-,N/A,,Partly Cloudy,320,2014-03-22 22:15:00
5:35 PM,62.6,35.6,37,30.02,10.0,Variable,3.5,-,N/A,,Partly Cloudy,0,2014-03-22 22:35:00
5:55 PM,62.6,35.6,37,30.03,10.0,NW,3.5,-,N/A,,Partly Cloudy,320,2014-03-22 22:55:00
6:15 PM,62.6,35.6,37,30.04,10.0,Calm,Calm,-,N/A,,Mostly Cloudy,0,2014-03-22 23:15:00
6:35 PM,60.8,35.6,39,30.03,10.0,Calm,Calm,-,N/A,,Mostly Cloudy,0,2014-03-22 23:35:00
6:55 PM,59.0,35.6,42,30.04,10.0,Calm,Calm,-,N/A,,Scattered Clouds,0,2014-03-22 23:55:00
7:15 PM,57.2,33.8,41,30.05,10.0,NNW,4.6,-,N/A,,Clear,340,2014-03-23 00:15:00
7:35 PM,55.4,35.6,47,30.06,10.0,Calm,Calm,-,N/A,,Scattered Clouds,0,2014-03-23 00:35:00
7:55 PM,53.6,37.4,54,30.06,10.0,Calm,Calm,-,N/A,,Scattered Clouds,0,2014-03-23 00:55:00
8:15 PM,48.2,35.6,62,30.06,10.0,Calm,Calm,-,N/A,,Scattered Clouds,0,2014-03-23 01:15:00
8:35 PM,48.2,39.2,71,30.07,10.0,Calm,Calm,-,N/A,,Scattered Clouds,0,2014-03-23 01:35:00
8:55 PM,46.4,37.4,71,30.07,10.0,Calm,Calm,-,N/A,,Partly Cloudy,0,2014-03-23 01:55:00
9:15 PM,48.2,35.6,62,30.07,10.0,Calm,Calm,-,N/A,,Clear,0,2014-03-23 02:15:00
9:35 PM,50.0,33.8,54,30.07,10.0,Calm,Calm,-,N/A,,Partly Cloudy,0,2014-03-23 02:35:00
9:55 PM,51.8,33.8,50,30.07,10.0,North,4.6,-,N/A,,Scattered Clouds,360,2014-03-23 02:55:00
10:15 PM,50.0,33.8,54,30.08,10.0,North,3.5,-,N/A,,Partly Cloudy,360,2014-03-23 03:15:00
10:35 PM,51.8,30.2,44,30.09,10.0,NNW,4.6,-,N/A,,Mostly Cloudy,340,2014-03-23 03:35:00
10:55 PM,51.8,30.2,44,30.08,10.0,Variable,3.5,-,N/A,,Overcast,0,2014-03-23 03:55:00
11:15 PM,50.0,30.2,47,30.09,10.0,North,3.5,-,N/A,,Mostly Cloudy,350,2014-03-23 04:15:00
11:35 PM,48.2,32.0,54,30.08,10.0,Calm,Calm,-,N/A,,Clear,0,2014-03-23 04:35:00
11:55 PM,48.2,30.2,50,30.07,10.0,NE,4.6,-,N/A,,Partly Cloudy,40,2014-03-23 04:55:00